TimeCST,TemperatureF,Dew PointF,Humidity,Sea Level PressureIn,VisibilityMPH,Wind Direction,Wind SpeedMPH,Gust SpeedMPH,PrecipitationIn,Events,Conditions,WindDirDegrees,DateUTC
12:53 AM,32.0,28.0,85,30.07,10.0,WSW,4.6,-,N/A,,Clear,240,2013-02-23 06:53:00
1:53 AM,30.0,27.0,88,30.06,10.0,Calm,Calm,-,N/A,,Clear,0,2013-02-23 07:53:00
2:53 AM,28.9,26.1,89,30.02,9.0,Calm,Calm,-,N/A,,Clear,0,2013-02-23 08:53:00
3:53 AM,28.0,26.1,92,30.02,8.0,Calm,Calm,-,N/A,,Clear,0,2013-02-23 09:53:00
4:53 AM,28.0,25.0,88,30.02,9.0,Calm,Calm,-,N/A,,Clear,0,2013-02-23 10:53:00
6:53 AM,26.1,25.0,96,30.04,6.0,West,3.5,-,N/A,,Clear,280,2013-02-23 12:53:00
7:53 AM,30.0,27.0,88,30.05,5.0,Calm,Calm,-,N/A,,Clear,0,2013-02-23 13:53:00
8:53 AM,36.0,30.0,79,30.08,7.0,Calm,Calm,-,N/A,,Clear,0,2013-02-23 14:53:00
9:53 AM,39.9,28.9,65,30.07,9.0,Calm,Calm,-,N/A,,Clear,0,2013-02-23 15:53:00
10:53 AM,44.1,28.0,53,30.06,9.0,East,3.5,-,N/A,,Clear,90,2013-02-23 16:53:00
11:53 AM,46.0,28.9,51,30.04,10.0,Calm,Calm,-,N/A,,Clear,0,2013-02-23 17:53:00
12:53 PM,48.9,30.9,50,30.01,10.0,Variable,4.6,-,N/A,,Scattered Clouds,0,2013-02-23 18:53:00
1:53 PM,52.0,30.0,43,29.99,10.0,WNW,5.8,-,N/A,,Mostly Cloudy,300,2013-02-23 19:53:00
2:53 PM,53.1,30.0,41,29.95,10.0,Calm,Calm,-,N/A,,Mostly Cloudy,0,2013-02-23 20:53:00
3:53 PM,54.0,28.9,38,29.93,10.0,Calm,Calm,-,N/A,,Clear,0,2013-02-23 21:53:00
4:53 PM,54.0,30.9,41,29.92,10.0,SSW,4.6,-,N/A,,Clear,200,2013-02-23 22:53:00
5:53 PM,52.0,32.0,47,29.94,10.0,SW,4.6,-,N/A,,Clear,230,2013-02-23 23:53:00
6:53 PM,46.0,34.0,63,29.96,10.0,Calm,Calm,-,N/A,,Clear,0,2013-02-24 00:53:00
7:53 PM,39.9,34.0,79,29.96,6.0,Calm,Calm,-,N/A,,Haze,0,2013-02-24 01:53:00
9:53 PM,34.0,32.0,92,29.99,10.0,Calm,Calm,-,N/A,,Clear,0,2013-02-24 03:53:00
10:53 PM,32.0,30.9,96,29.99,7.0,Calm,Calm,-,N/A,,Clear,0,2013-02-24 04:53:00
11:53 PM,30.9,28.9,92,29.97,5.0,ESE,3.5,-,N/A,,Clear,110,2013-02-24 05:53:00